EW5144 Weather Reports


time (UTC)temp
C
wind
direction
speed
KPH
gust
KPH
rain 1hr
cm
rain 24hr
cm
rain mn
cm
humidity
%
barometer
mb
20240301104610 -5 338 0.0 0.0 0.00 0.00 0.00 55 1034.4
20240301104501 -5 338 0.0 1.6 0.00 0.00 0.00 55 1034.4
20240301103111 -5 322 0.0 1.6 0.00 0.00 0.00 55 1034.2
20240301101557 -5 60 0.0 1.6 0.00 0.00 0.00 56 1034.0
20240301100109 -5 12 0.0 1.6 0.00 0.00 0.00 55 1033.6
20240301094552 -5 12 0.0 0.0 0.00 0.00 0.00 54 1033.5
20240301093050 -4 13 0.0 1.6 0.00 0.00 0.00 54 1033.5
20240301091548 -4 341 0.0 1.6 0.00 0.00 0.00 54 1033.2
20240301090044 -4 358 0.0 1.6 0.00 0.00 0.00 56 1032.7
20240301084542 -4 186 0.0 1.6 0.00 0.00 0.00 58 1032.4
20240301083044 -4 217 0.0 1.6 0.00 0.00 0.00 57 1031.9
20240301081546 -3 159 0.0 1.6 0.00 0.00 0.00 57 1031.7
20240301080034 -3 40 0.0 1.6 0.00 0.00 0.00 56 1031.4
20240301074532 -3 53 0.0 1.6 0.00 0.00 0.00 55 1031.1
20240301073032 -3 313 0.0 1.6 0.00 0.00 0.00 55 1031.1
20240301071528 -3 29 0.0 1.6 0.00 0.00 0.00 54 1030.6
20240301070026 -3 193 0.0 3.2 0.00 0.00 0.00 54 1030.5
20240301064530 -3 335 0.0 1.6 0.00 0.00 0.00 53 1030.4
20240301063028 -3 288 0.0 1.6 0.00 0.00 0.00 53 1030.4
20240301061523 -3 345 0.0 6.4 0.00 0.00 0.00 53 1030.2
20240301060058 -3 287 0.0 1.6 0.00 0.00 0.00 52 1030.1
20240301054517 -3 316 0.0 1.6 0.00 0.05 0.00 51 1029.9
20240301053015 -3 261 0.0 3.2 0.00 0.05 0.00 51 1029.6
20240301051512 -3 319 0.0 3.2 0.00 0.05 0.00 51 1029.4
20240301050009 -3 309 0.0 6.4 0.00 0.05 0.00 51 1029.1
20240301044509 -2 305 0.0 6.4 0.00 0.10 0.05 51 1028.9
20240301043006 -3 295 0.0 9.7 0.00 0.10 0.05 51 1028.8
20240301041504 -2 2 0.0 6.4 0.00 0.10 0.05 50 1028.5
20240301040006 -2 310 0.0 3.2 0.00 0.10 0.05 50 1028.4
20240301034502 -2 352 0.0 6.4 0.00 0.33 0.05 49 1028.3
20240301033001 -2 7 0.0 3.2 0.00 0.33 0.05 48 1028.3
20240301031617 -2 272 0.0 1.6 0.00 0.33 0.05 48 1028.1
20240301030058 -2 319 0.0 4.8 0.00 0.33 0.05 46 1027.8
20240301024557 -2 151 0.0 11.3 0.00 0.33 0.05 44 1027.8
20240301023056 -2 39 0.0 4.8 0.00 0.33 0.05 44 1027.7
20240301021555 -2 155 0.0 8.0 0.00 0.33 0.05 44 1027.4
20240301020053 -2 51 1.6 11.3 0.00 0.33 0.05 46 1027.3
20240301014609 -2 56 0.0 8.0 0.00 0.33 0.05 47 1027.1
20240301013049 -2 274 0.0 4.8 0.00 0.33 0.05 47 1026.9
20240301011649 -2 11 0.0 8.0 0.00 0.33 0.05 46 1026.6
20240301010045 -2 350 0.0 8.0 0.00 0.33 0.05 45 1026.3
20240301004544 -2 307 0.0 3.2 0.00 0.33 0.05 45 1026.1
20240301003103 -2 346 0.0 3.2 0.00 0.33 0.05 45 1026.0
20240301001544 -1 285 0.0 3.2 0.00 0.33 0.05 45 1025.8
20240301000053 -1 274 0.0 4.8 0.00 0.33 0.05 43 1025.7
20240229234547 -1 245 0.0 11.3 0.00 0.33 0.05 44 1025.6
20240229233043 -1 5 0.0 9.7 0.00 0.33 0.05 42 1025.2
20240229231531 -1 261 0.0 9.7 0.00 0.33 0.05 41 1024.8
20240229230035 -1 184 0.0 8.0 0.00 0.33 0.05 42 1024.2
20240229224528 -1 35 1.6 9.7 0.00 0.33 0.05 43 1024.0
20240229223031 -1 298 1.6 19.3 0.00 0.33 0.05 41 1023.7
20240229221626 0 286 0.0 9.7 0.00 0.33 0.05 41 1023.4
20240229220030 0 316 1.6 24.1 0.00 0.33 0.05 41 1023.1
20240229214524 0 276 0.0 6.4 0.00 0.33 0.05 41 1023.1
20240229213020 0 342 1.6 8.0 0.00 0.33 0.05 38 1022.7
20240229211518 0 296 3.2 12.9 0.00 0.33 0.05 39 1022.6
20240229210017 0 303 1.6 9.7 0.00 0.33 0.05 39 1022.3
20240229204518 1 120 1.6 16.1 0.00 0.33 0.05 37 1022.1
20240229203015 1 248 1.6 14.5 0.00 0.33 0.05 37 1021.8
20240229201513 2 124 0.0 9.7 0.00 0.33 0.05 35 1021.6
20240229200012 2 96 1.6 12.9 0.00 0.33 0.05 34 1021.4
20240229194511 2 302 0.0 12.9 0.00 0.33 0.05 35 1021.3
20240229193011 2 207 1.6 8.0 0.00 0.33 0.05 36 1021.1
20240229191511 1 213 1.6 17.7 0.00 0.33 0.05 36 1021.2
20240229190009 1 51 0.0 9.7 0.00 0.33 0.05 34 1021.0
20240229184510 1 143 1.6 11.3 0.00 0.33 0.05 36 1021.1
20240229183008 1 31 0.0 8.0 0.00 0.33 0.05 37 1021.4
20240229181507 2 41 1.6 14.5 0.00 0.33 0.05 37 1021.2
20240229180005 2 303 1.6 9.7 0.00 0.33 0.05 37 1021.2
20240229174503 1 75 0.0 6.4 0.00 0.33 0.05 41 1021.3
20240229173002 1 219 0.0 6.4 0.00 0.33 0.05 39 1021.3
20240229171502 2 335 1.6 8.0 0.00 0.33 0.05 36 1021.4
20240229170105 2 334 0.0 8.0 0.00 0.33 0.05 37 1021.4
20240229164559 1 338 1.6 8.0 0.00 0.41 0.05 37 1021.7
20240229163057 1 143 0.0 9.7 0.00 0.41 0.05 36 1021.5
20240229161556 1 262 1.6 12.9 0.00 0.41 0.05 37 1021.5
20240229160057 2 172 0.0 6.4 0.00 0.41 0.05 37 1021.4
20240229154551 1 84 0.0 11.3 0.00 0.41 0.05 38 1021.4
20240229153050 1 117 1.6 8.0 0.00 0.41 0.05 39 1021.2
20240229151549 0 266 1.6 9.7 0.00 0.41 0.05 41 1021.4
20240229150046 0 309 0.0 3.2 0.00 0.41 0.05 43 1021.4
20240229144545 0 77 0.0 3.2 0.00 0.43 0.05 43 1021.4
20240229143047 0 33 0.0 6.4 0.00 0.43 0.05 43 1021.2
20240229141540 0 36 1.6 12.9 0.00 0.43 0.05 44 1021.0
20240229140038 0 304 1.6 8.0 0.00 0.43 0.05 44 1020.7
20240229134544 -1 110 0.0 14.5 0.00 0.46 0.05 45 1020.7
20240229133048 -1 359 0.0 12.9 0.00 0.46 0.05 46 1020.4
20240229131534 -1 291 0.0 4.8 0.00 0.46 0.05 48 1020.2
20240229130031 -2 115 0.0 3.2 0.00 0.46 0.05 48 1019.8
20240229124538 -2 236 0.0 4.8 0.00 0.48 0.05 49 1019.6
20240229123033 -2 70 0.0 6.4 0.00 0.48 0.05 49 1019.2
20240229121525 -2 328 0.0 4.8 0.00 0.48 0.05 49 1018.6
20240229120024 -2 269 0.0 6.4 0.00 0.48 0.05 49 1018.1
20240229114523 -2 115 0.0 4.8 0.00 0.53 0.05 49 1017.5
20240229113016 -2 288 0.0 6.4 0.00 0.53 0.05 49 1017.0
20240229111513 -2 112 0.0 9.7 0.00 0.53 0.05 49 1016.4
20240229110009 -2 88 0.0 8.0 0.00 0.53 0.05 50 1016.0